Погода в Комсомольском

Россия / Самарская область     53°07′22″N   52°09′40″E
темп.,
°C
ветер,
м/с
пор.,
м/с
влажн.,
%
обл.,
%
осадки,
мм/ч
давл.,
гПа
погр.,
м
18 мая, ср
ср1801:00+6ю23975 0.6 100460
04:00+5ююз11955 0.6 100314
07:00+8юз258233 0.0 1003296
10:00+10юз5774100 0.5 1003921
13:00+8юз3793100 1.4 1004707
16:00+9зюз4888100 2.0 1005627
19:00+10з4981100 0.1 1005901
22:00+7з51193100 0.3 1008682
19 мая, чт
чт1901:00+5зсз379758 0.0 1010283
04:00+4зюз239811 0.0 101165
07:00+7юз368598 0.0 1012306
10:00+10зюз4785100 0.6 1011994
13:00+14з595185 0.7 10102115
16:00+14зсз695636 0.9 10111566
19:00+11сз366418 0.1 1011462
22:00+7ююв0076100 0.1 101110
20 мая, пт
пт2001:00+7ю2480100 0.0 1010103
04:00+5з2696100 0.0 1010150
07:00+7ссз2485100 0.0 1010335
10:00+10сз2363100 0.0 10101179
13:00+11ссз2355100 0.1 10091246
16:00+11сз456389 0.5 10081189
19:00+7ссз3785100 0.9 1008634
22:00+4зсз39900 1.0 1008224
21 мая, сб
сб2101:00+3зсз310920 0.0 1007296
04:00+2зсз411955 0.0 1007380
07:00+4зсз598533 0.0 1008655
10:00+6зсз5774100 0.2 10081170
13:00+8зсз565952 0.1 10081407
16:00+10з465899 0.3 10071307
19:00+8з2472100 0.5 1006128
22:00+5св1178100 0.5 100510
22 мая, вс
вс2201:00+5всв2481100 0.0 100287
04:00+5св2595100 0.7 999206
07:00+4св5996100 3.6 997845
10:00+3с71397100 5.5 996729
13:00+5с71290100 0.8 9971064
16:00+6с71275100 0.9 9981295
19:00+5ссз71376100 0.1 9991113
22:00+3ссз71495100 1.4 999985